TimeEST,TemperatureF,Dew PointF,Humidity,Sea Level PressureIn,VisibilityMPH,Wind Direction,Wind SpeedMPH,Gust SpeedMPH,PrecipitationIn,Events,Conditions,WindDirDegrees,DateUTC
12:15 AM,30.2,21.6,70,30.19,10.0,SSW,5.8,-,N/A,,Clear,210,2013-01-04 05:15:00
12:35 AM,30.7,22.1,70,30.19,10.0,SSW,4.6,-,N/A,,Clear,200,2013-01-04 05:35:00
12:55 AM,30.2,22.5,73,30.18,10.0,SSW,3.5,-,N/A,,Clear,210,2013-01-04 05:55:00
1:15 AM,30.0,23.0,75,30.18,10.0,SW,5.8,-,N/A,,Clear,220,2013-01-04 06:15:00
1:35 AM,29.3,23.0,77,30.18,10.0,SSW,4.6,-,N/A,,Clear,210,2013-01-04 06:35:00
1:55 AM,28.8,22.6,78,30.19,10.0,SSW,4.6,-,N/A,,Clear,210,2013-01-04 06:55:00
2:15 AM,28.6,22.8,79,30.20,10.0,SW,3.5,-,N/A,,Clear,220,2013-01-04 07:15:00
2:35 AM,26.6,21.9,82,30.21,10.0,Calm,Calm,-,N/A,,Clear,0,2013-01-04 07:35:00
2:55 AM,27.0,22.5,83,30.21,10.0,WSW,5.8,-,N/A,,Clear,240,2013-01-04 07:55:00
3:15 AM,26.4,21.7,82,30.22,10.0,Calm,Calm,-,N/A,,Clear,0,2013-01-04 08:15:00
3:35 AM,25.0,22.8,91,30.21,10.0,West,3.5,-,N/A,,Clear,260,2013-01-04 08:35:00
3:55 AM,27.3,22.1,81,30.21,10.0,West,3.5,-,N/A,,Clear,270,2013-01-04 08:55:00
4:15 AM,27.0,21.6,80,30.21,10.0,Calm,Calm,-,N/A,,Clear,0,2013-01-04 09:15:00
7:15 AM,21.6,20.3,95,30.23,7.0,Calm,Calm,-,N/A,,Clear,0,2013-01-04 12:15:00
7:35 AM,21.0,19.4,93,30.23,7.0,Calm,Calm,-,N/A,,Clear,0,2013-01-04 12:35:00
7:55 AM,21.2,19.4,93,30.23,7.0,Calm,Calm,-,N/A,,Clear,0,2013-01-04 12:55:00
8:15 AM,22.6,21.0,93,30.24,7.0,Calm,Calm,-,N/A,,Clear,0,2013-01-04 13:15:00
8:35 AM,26.1,24.1,92,30.24,7.0,Calm,Calm,-,N/A,,Clear,0,2013-01-04 13:35:00
8:55 AM,29.8,25.7,85,30.24,7.0,Calm,Calm,-,N/A,,Clear,0,2013-01-04 13:55:00
9:15 AM,32.0,25.3,76,30.24,10.0,South,3.5,-,N/A,,Clear,180,2013-01-04 14:15:00
9:35 AM,34.0,23.9,67,30.24,10.0,South,3.5,-,N/A,,Clear,190,2013-01-04 14:35:00
9:55 AM,35.8,23.2,60,30.24,7.0,WSW,3.5,-,N/A,,Clear,240,2013-01-04 14:55:00
10:15 AM,36.9,23.5,59,30.24,7.0,West,5.8,-,N/A,,Clear,260,2013-01-04 15:15:00
10:35 AM,37.6,23.9,58,30.24,7.0,West,4.6,-,N/A,,Clear,280,2013-01-04 15:35:00
10:55 AM,38.5,22.8,53,30.23,10.0,West,4.6,-,N/A,,Clear,260,2013-01-04 15:55:00
11:15 AM,39.7,22.6,50,30.22,10.0,WSW,5.8,-,N/A,,Clear,250,2013-01-04 16:15:00
11:35 AM,41.5,21.7,45,30.21,10.0,West,6.9,-,N/A,,Clear,270,2013-01-04 16:35:00
11:55 AM,42.8,21.2,42,30.19,10.0,WSW,4.6,-,N/A,,Clear,250,2013-01-04 16:55:00
12:15 PM,43.7,21.0,41,30.18,10.0,SW,10.4,-,N/A,,Clear,230,2013-01-04 17:15:00
12:35 PM,45.0,21.4,39,30.17,10.0,WSW,10.4,-,N/A,,Clear,250,2013-01-04 17:35:00
12:55 PM,45.1,19.6,36,30.16,10.0,WSW,9.2,-,N/A,,Clear,250,2013-01-04 17:55:00
1:15 PM,45.5,19.9,36,30.14,10.0,SW,5.8,-,N/A,,Clear,230,2013-01-04 18:15:00
1:35 PM,46.2,19.4,34,30.14,10.0,WSW,9.2,-,N/A,,Clear,240,2013-01-04 18:35:00
1:55 PM,46.6,19.0,33,30.14,10.0,West,8.1,-,N/A,,Clear,270,2013-01-04 18:55:00
2:15 PM,46.6,19.2,34,30.14,10.0,WSW,11.5,18.4,N/A,,Clear,240,2013-01-04 19:15:00
2:35 PM,46.8,19.4,34,30.13,7.0,West,6.9,-,N/A,,Clear,280,2013-01-04 19:35:00
2:55 PM,46.6,18.9,33,30.13,10.0,West,6.9,-,N/A,,Clear,260,2013-01-04 19:55:00
3:15 PM,46.8,19.2,33,30.13,10.0,SW,9.2,-,N/A,,Clear,230,2013-01-04 20:15:00
3:35 PM,46.4,18.7,33,30.13,7.0,West,5.8,-,N/A,,Clear,260,2013-01-04 20:35:00
3:55 PM,46.2,18.9,34,30.13,7.0,West,9.2,-,N/A,,Clear,270,2013-01-04 20:55:00
4:15 PM,45.1,19.2,36,30.14,7.0,WSW,4.6,-,N/A,,Clear,250,2013-01-04 21:15:00
4:35 PM,44.8,19.2,36,30.13,10.0,West,5.8,-,N/A,,Clear,260,2013-01-04 21:35:00
4:55 PM,43.0,19.0,38,30.13,10.0,WSW,4.6,-,N/A,,Clear,240,2013-01-04 21:55:00
5:15 PM,41.9,19.2,40,30.13,7.0,WSW,4.6,-,N/A,,Clear,250,2013-01-04 22:15:00
5:35 PM,39.9,20.5,46,30.13,10.0,South,3.5,-,N/A,,Clear,190,2013-01-04 22:35:00
6:15 PM,40.1,20.7,46,30.15,10.0,SW,5.8,-,N/A,,Clear,220,2013-01-04 23:15:00
6:35 PM,40.6,20.3,44,30.15,10.0,South,3.5,-,N/A,,Clear,190,2013-01-04 23:35:00
6:55 PM,40.1,20.8,46,30.15,10.0,WSW,3.5,-,N/A,,Clear,250,2013-01-04 23:55:00
7:15 PM,40.3,21.0,46,30.16,10.0,Calm,Calm,-,N/A,,Clear,0,2013-01-05 00:15:00
7:35 PM,36.5,23.9,60,30.16,10.0,South,3.5,-,N/A,,Clear,190,2013-01-05 00:35:00
7:55 PM,38.1,22.5,53,30.16,10.0,SW,4.6,-,N/A,,Clear,230,2013-01-05 00:55:00
8:15 PM,39.7,21.2,48,30.16,10.0,Calm,Calm,-,N/A,,Clear,0,2013-01-05 01:15:00
8:35 PM,36.0,23.0,59,30.17,10.0,Calm,Calm,-,N/A,,Clear,0,2013-01-05 01:35:00
9:15 PM,37.2,21.4,53,30.18,10.0,WSW,5.8,-,N/A,,Clear,240,2013-01-05 02:15:00
9:35 PM,38.3,21.0,50,30.19,10.0,WSW,4.6,-,N/A,,Clear,240,2013-01-05 02:35:00
9:55 PM,36.5,20.8,53,30.19,10.0,WSW,4.6,-,N/A,,Clear,250,2013-01-05 02:55:00
10:35 PM,35.6,20.3,54,30.21,10.0,West,4.6,-,N/A,,Clear,260,2013-01-05 03:35:00
10:55 PM,34.7,20.3,56,30.20,10.0,SW,3.5,-,N/A,,Clear,230,2013-01-05 03:55:00
11:15 PM,33.4,20.5,59,30.20,10.0,WSW,4.6,-,N/A,,Clear,250,2013-01-05 04:15:00
11:35 PM,32.9,20.5,60,30.20,10.0,WSW,4.6,-,N/A,,Clear,240,2013-01-05 04:35:00
11:55 PM,30.4,21.0,68,30.20,10.0,SW,4.6,-,N/A,,Clear,230,2013-01-05 04:55:00